CAPE
1290 1472 2173 1611 1894 1847 2076 2395 2500 2622 2666 2415 2551 2871 3030 2896 2872 2861 3052 3200 3302 3376 3241 3348 3269 3201 3198 3134 3219 3197 3221 3031 3034 2934 2947 2884 2749 2749 2928 2995 3129 2968 2907 2601 2719 2824 2748 3184 3183 2735 2497 2698 2693 2556 2600 2478 2317 2003 2127 2448 2381 2483 2381 2121 2260 2386 2310 2573 2485 2377 2582 2378 2249 2226 2052 1812 1370 1000 889 1059 820 818 1394 1761 1808
2122 2450 1938 1913 1730 2071 2220 2235 2388 2644 2856 2500 2798 2949 2864 2902 2872 2951 3201 3239 3350 3298 3332 3278 3266 3156 3125 3140 3086 3013 2939 2820 2768 2787 2881 2673 2724 2767 2815 2761 3019 3040 2970 3120 2814 2626 2989 3051 2804 2579 2599 2586 2387 2389 2325 2052 2028 1849 2005 1986 2145 2502 2556 2230 2242 2286 2201 2202 2539 2530 2414 2241 2181 1954 1961 1776 1430 1147 978 752 740 1140 1718 2141 2077
1462 2229 2138 1935 1771 2052 2058 2050 2164 2493 2819 2906 2702 2870 2729 2825 3088 3234 3268 3353 3329 3288 3162 3148 3148 3062 3046 2870 2830 2895 2849 2686 2664 2752 2755 2670 2697 2542 2734 3048 3042 2607 2772 2853 2701 2678 2912 2733 2688 2562 2515 2554 2275 2354 2472 2305 2246 1915 1731 2116 2166 2374 2423 2466 2363 2311 2200 2373 2388 2490 2246 2286 2027 1666 1335 1260 1192 1236 1333 1374 1531 1948 2142 2141 1941
2006 2272 1860 1796 1863 1929 1939 1904 2029 2292 2469 2734 2812 2479 2651 3080 3269 3187 3270 3163 3142 3101 3066 3043 3109 3019 2992 2952 3140 2960 2903 2789 2625 2487 2483 2718 2728 2560 2545 2502 2565 2466 2616 2562 2444 2362 2700 2698 2530 2570 2535 2141 2367 2460 2436 2334 2108 1922 1564 2080 2283 2138 2428 2579 2469 2454 2337 2312 2456 2192 1713 1668 1993 2186 2144 2065 2152 2042 2267 2307 2135 2200 2316 2200 2082
1508 2012 1743 1971 1954 1785 1846 1966 1870 2056 2154 2370 2750 2675 3006 3120 3044 3103 3140 3120 3071 3077 3090 2887 2792 2879 2908 2843 2942 2847 2900 2619 2542 2522 2518 2583 2598 2661 2468 2494 2387 2633 2437 2360 2354 2507 2563 2588 2460 2452 2551 2451 2219 2157 2466 2384 2112 1975 1768 1971 2164 2486 2474 2243 2663 2443 2446 2014 2104 2154 1548 1696 1813 2086 1924 2035 1990 2159 2080 1963 2112 2332 2290 2258 1836
1917 1920 1995 2155 2015 1954 1845 2034 1797 1662 2021 2145 2450 2892 3139 3061 3052 3003 3136 3129 3081 2977 2918 2978 2802 2740 2895 2974 2844 2740 2622 2561 2414 2369 2284 2622 2427 2535 2243 2496 2335 2331 2589 2462 2214 2322 2438 2393 2630 2592 2585 2429 2211 2362 2385 2438 2217 2040 1724 1797 1911 1950 2269 2213 2473 2559 2589 2496 2502 2455 1845 1559 1548 1815 2020 1709 2048 1906 2102 2112 2068 2112 2044 1569 1852
1898 2112 2111 2268 2053 2000 1459 1398 1557 1656 1718 1820 2146 2885 3089 3049 3003 3230 3086 3187 2971 2902 2824 2736 2754 2726 2605 2624 2511 2489 2434 2403 2287 2177 2480 2486 2570 2553 2503 2412 2478 2491 2571 2487 2460 2484 2250 2312 2221 2235 2233 2225 2167 2265 2169 2353 2182 1938 1812 1708 1986 1918 2403 2251 2374 2496 2590 2536 2750 2213 2143 1347 1402 1720 2074 1994 1887 1916 2152 2156 1957 1919 1794 1788 1812
1817 2032 2149 2433 2267 1755 1469 1536 1652 1647 1586 1812 2525 3031 3026 2926 3056 3112 2925 2635 2657 2676 2483 2415 2613 2558 2546 2592 2438 2129 2255 2299 2127 2268 2262 2203 2152 2210 2365 2270 2588 2384 2204 2534 2567 2440 2336 2227 2202 2117 2066 2492 2216 2261 2194 2319 2160 1908 1628 2061 2130 1974 2156 2216 1970 1816 1804 2861 2273 1924 2120 1398 1463 1714 1918 1749 2164 2154 2013 1737 1904 2069 1983 2101 2267
1674 2005 2206 2256 2073 1740 1671 1718 1754 1749 1798 2376 2749 2846 2779 2782 2667 2654 2386 2344 2307 2401 2421 2502 2330 2397 2395 2496 2477 2357 2235 2268 2198 2101 2182 2257 2264 2207 1986 2086 2134 2223 2326 2366 2076 2190 2180 2256 2352 2441 2193 2315 2130 1884 2073 2234 2180 1925 1750 1920 1985 2024 1873 2018 2148 2084 2473 2313 2934 2520 2042 1134 1186 1324 2145 2237 2095 1675 2029 2460 2349 2162 2181 1889 2457
1629 1932 2091 2311 2066 1966 1869 1807 1880 2058 2326 2557 2690 2788 2682 2554 2555 2490 2308 2294 2249 2274 2387 2482 2446 2261 2328 2335 2321 2314 2306 2270 2010 2232 2076 2069 2126 2117 1941 2043 2328 2421 2052 2154 2292 2320 2405 2347 2230 2192 2099 2315 2137 2112 2150 2022 2153 1954 1864 1841 2020 1988 2167 2192 2459 1863 2042 2261 2151 2323 2110 1456 1202 987 2430 2542 2450 2377 2406 2236 1885 1886 1730 2437 1955
1297 1716 2135 1964 2105 2220 2120 2129 2328 2516 2493 2562 2647 2559 2441 2356 2190 2329 2335 2392 2323 2218 2247 2107 2221 2374 2301 2206 2150 2345 2389 2260 1996 2099 2112 2081 2234 2048 2164 2226 2332 2367 2171 2150 2220 2149 2152 1970 2077 2181 1982 2012 2089 2082 2198 2188 2232 1978 1946 2232 2227 2210 2431 2488 2416 1526 1737 1822 1926 1789 1244 1433 1327 1595 1924 1949 2014 2202 2160 2180 2170 2134 2082 1808 1890
1999 1841 2082 1966 2526 2276 2236 2373 2575 2559 2519 2411 2442 2511 2106 1966 2181 2529 2310 2277 2365 2275 2237 2056 2057 2360 2311 2157 2106 2140 2302 2108 2185 2213 2158 2186 2077 1937 2092 2221 2228 2212 2001 2189 2166 2100 2088 1988 2104 1992 2135 1932 1901 2147 2228 2080 1924 1897 2126 2357 2121 1818 1780 1868 1026 838 1506 1554 1550 1276 1242 1447 1753 1919 1907 1947 2029 1987 2084 2047 2079 1957 1941 1989 1987
1706 1970 2153 1866 1953 2296 2380 2455 2524 2496 2339 2504 2562 2266 2305 2019 2463 2331 2223 2322 2348 2325 2351 2106 2092 2290 2099 2203 2291 2263 2147 2030 2219 2172 2002 2051 2111 2044 2037 2189 2193 2158 2148 2024 2078 2121 2104 2060 2093 1755 1834 1859 1924 1930 1887 1952 1956 2209 2518 2235 1826 1200 1004 715 812 1750 2432 2317 2276 2194 2147 1654 1903 2130 1889 2124 2097 2065 2012 1974 2046 1942 1837 1905 1974
1530 1809 1075 1738 1842 2570 2528 2529 2484 2426 2499 2476 2351 2439 2394 2212 2362 2255 2236 2296 2252 2115 2080 2140 2288 2199 1990 2235 2038 2302 2197 2129 2018 2359 2158 1901 2057 1997 2006 2009 1856 2027 2104 2157 2095 2034 2086 2069 1960 1892 1910 1695 1775 1966 1775 1986 2066 2213 2348 2104 1431 1122 879 1677 2031 2206 2445 2175 2541 2003 1603 1503 1997 2378 2009 1932 1818 1932 1874 2023 1871 1868 1780 1838 1860
845 1483 1439 1851 1652 1883 2548 2375 2406 2441 2370 2292 2413 2241 2328 2293 2311 2248 2345 2219 2161 2165 2004 2001 2043 1989 2059 2283 2209 2161 2150 2181 2124 1955 1978 2028 1910 1936 1900 2014 2032 2181 2115 2182 2250 2071 1945 2119 2009 1923 1980 1684 1913 1883 1736 2073 2162 2327 2349 1926 1431 1224 1406 1842 2270 2334 2292 2528 1602 853 1478 1850 2279 2078 2301 2274 2062 2106 1994 1892 1831 1693 1583 1559 1585
1187 586 834 1293 1443 1852 1910 2446 2328 2397 2373 2291 2267 2149 2046 2164 2153 2242 2084 1913 1937 2097 2044 1889 2118 2002 2196 2237 2309 2155 2045 2011 2125 1912 1945 1929 1923 1830 2049 2029 2079 2101 2197 2160 2241 2165 2022 1670 1740 1986 1972 1825 1744 1815 2050 2113 2362 2554 2385 1936 1402 1044 1433 1849 1982 2389 2562 1984 1257 1428 1657 2162 2217 2062 2014 2403 2444 2417 2266 1998 1852 1813 1722 1636 1567
1147 1201 1140 1318 1250 1261 1474 1942 2260 2338 2285 2303 2365 2104 2020 2028 2024 2019 1884 2105 2103 2061 2051 2064 2012 2125 2182 1917 2339 2124 1957 2041 2054 2173 2060 1964 1997 1826 1630 1761 2047 2040 2140 2263 2224 2132 1996 1789 2025 1988 1936 1759 1717 1656 1895 2231 2520 2531 2515 2292 1846 1062 804 1726 1846 1692 2212 1834 1284 1340 1650 2142 2200 1942 2384 2654 2460 2465 2444 2219 1941 1846 1753 1638 1534
925 1099 1119 1058 1001 1102 1359 1626 2146 2099 2201 2349 2376 2228 1986 1891 1932 1924 1900 1853 2012 2029 1924 1851 1944 2187 2068 1961 2116 2163 1950 1995 1933 2259 2175 1895 1733 1762 1907 2090 2066 2163 2092 2004 2039 2204 2204 2184 2138 2094 1976 1902 1903 2264 2308 2334 2529 2576 2519 2334 2100 1556 1061 1332 1848 1682 1801 1674 1665 1531 1817 1977 2039 2327 2412 2470 2548 2523 2450 2368 2164 1946 1776 1653 1556
1116 1122 953 1079 1147 1658 1667 1453 1647 1520 1842 1668 2204 2096 1741 1598 1604 1815 1946 2051 1839 1957 1898 2002 2048 2177 2126 2012 2026 2015 2003 1917 2063 2390 2085 1885 1687 1646 1510 1832 2072 2170 2103 2016 1926 2058 1993 1897 2064 2132 2100 1989 2172 2363 2404 2539 2550 2458 2317 2359 2233 2133 2780 1608 1886 1865 1652 1534 1665 1472 2077 2354 2230 2422 2520 2582 2471 2546 2473 2349 2204 2126 1904 1858 1653
1517 1397 1404 1585 1534 1933 2130 2175 1962 1597 1783 1891 1568 1797 1931 1910 1665 1790 1714 2026 2032 2020 2055 2126 1947 2020 2221 2078 1991 1826 2093 2120 1978 2229 2142 1796 1699 1627 1692 1815 2048 2058 1926 2149 2224 2040 2093 2046 1902 1710 1906 2075 2408 2574 2707 2665 2436 2466 2339 2248 2529 2224 2069 1918 1698 1900 1777 1671 1542 1958 2380 2395 2457 2474 2471 2491 2472 2549 2435 2286 2201 2172 2023 1904 1765
1567 1522 1673 1453 1727 1815 1989 2136 1960 1034 1255 1627 1790 2249 2121 1782 1556 1809 1826 1914 1596 2020 2090 2137 2170 2116 2117 2053 1934 1974 2113 2260 2043 1952 1525 1821 1734 1860 1838 2045 2027 2042 1988 2000 2004 2111 2014 1890 1988 1947 1955 2181 2502 2619 2653 2628 2479 2209 2412 2460 2183 2494 1953 1994 1991 1875 1908 1667 1808 2352 2338 2258 2438 2452 2414 2428 2364 2185 2056 2154 2037 2089 2045 1976 1774
1665 1666 1720 1610 1681 1684 1699 2250 1786 1472 2082 1533 1781 1737 2024 1978 2118 1711 1658 1782 1893 1946 1797 2278 2342 1924 1672 1895 2036 1751 2327 2466 2022 1934 1656 1879 2065 2052 2136 2292 2204 2177 2017 1822 1955 1926 2067 1939 1857 2084 2205 2412 2667 2044 2455 2703 2434 2235 2182 2396 2979 2291 2248 2148 2046 1896 1921 2193 2323 2398 2277 2226 2186 2433 2470 2297 2148 2300 2154 2014 2013 1979 1951 1952 1842
1736 1913 1922 1905 2117 2153 2055 1941 1323 895 2046 1945 1486 2045 2190 2284 1798 1733 1730 1816 2050 2053 1896 2267 2622 2395 1988 1915 1837 1871 1858 2392 2054 1689 2043 1935 2218 2147 2189 2296 2176 1986 2181 2068 2089 2085 2264 1972 2296 2260 2347 2554 2465 1914 1838 1669 2002 2444 2341 2941 1948 2160 2383 2217 2216 2129 1734 2261 2374 2440 2430 2404 2327 2394 2376 2225 2157 2042 2022 2077 2053 1924 1760 1582 1728
1828 1909 2137 2308 2326 2234 2115 1871 1208 1462 1682 1962 1442 2207 2285 1967 1826 1449 1639 1771 1835 1809 2058 2381 2782 2647 2276 1729 1868 1723 1552 1918 1726 1469 1399 1876 2007 1876 2030 2172 2352 2331 2431 2300 2184 2191 2231 2357 2240 2631 2594 3038 1594 1035 1006 1258 1992 2006 1481 1373 1406 1374 1208 1134 1564 1850 1899 2012 2342 2351 2242 2154 2180 2252 2267 2203 2028 2158 2118 1968 1945 2028 2044 1958 1794
1433 1464 1894 1965 2078 1932 1892 1762 1244 1549 1924 1804 2070 2109 1597 1304 1260 1055 1443 1185 1359 1722 1856 1639 2006 1891 1733 1669 1545 1571 1235 1526 1682 1632 1575 1874 2071 1972 2007 2324 2390 2212 2364 2635 2427 2352 2276 2367 2240 2503 2694 2552 578 658 811 884 904 876 673 777 705 920 916 1324 1480 1346 1801 2204 2486 2337 2432 2420 2380 2270 2136 2129 2083 2004 1973 1993 1871 1902 1982 1878 1927
987 1174 1539 1670 1680 1565 1475 1268 1175 1840 1978 1556 1425 1782 2366 1683 1428 1488 1304 1396 1767 1688 2011 1245 1286 1816 2054 2330 1449 1424 1363 1652 1699 2088 2123 1870 2084 2224 2210 2302 2172 2492 2137 2537 2846 2409 2721 2925 3065 2671 2957 964 676 649 622 615 576 646 786 970 1017 1080 1073 1210 1274 1302 1440 1732 2252 2238 2186 2084 2284 2188 2113 2077 2004 1711 1984 2051 1856 1938 2037 1958 1999
760 1232 1307 1178 1181 1256 1183 1002 1321 1817 1968 1770 1859 1814 1218 1453 2107 1650 1819 2063 2308 2076 2259 1477 1858 1993 1845 1994 1377 1846 1781 1411 1625 1464 1702 1901 1724 1885 2110 2193 2420 2286 2476 2486 2538 2317 2528 3137 2638 2376 1216 1044 984 997 864 593 580 630 861 767 712 635 682 952 1110 1252 1461 1737 2236 2140 2095 2117 2037 2045 1997 2038 1978 1911 2072 1946 2090 1960 2067 2023 1980
657 1104 979 963 864 788 999 1151 1557 1798 2153 2069 1993 2075 2047 2104 1807 1970 2184 2421 1970 2177 1624 1776 2599 2447 2155 1650 1567 1745 1819 2040 1976 1788 1494 1526 964 983 1276 1707 1870 1816 2014 2233 2163 1973 2081 2474 2923 2086 1795 1118 575 852 898 628 690 728 938 977 781 574 906 1128 1302 1506 1508 1572 1985 2251 2224 2075 2077 2111 2119 2049 2015 2079 2033 2046 2124 2091 2091 1925 1940
553 774 760 716 484 744 1113 1479 1438 1530 2117 2016 1952 2087 2216 2025 1820 2052 1356 1656 1889 1716 1915 2120 2291 2205 2364 2171 2002 1561 1627 1498 1411 1182 1307 1489 1641 1841 1912 1670 2530 1728 1903 2110 1530 2012 1950 2732 2684 2091 1454 1591 1730 1552 1052 902 783 940 954 1192 860 1000 1085 1382 1492 1490 1538 1515 1410 2015 2230 2171 2134 1998 2014 2000 1946 2012 1986 1964 1931 1929 1903 1851 1817
315 402 500 342 354 633 1104 1335 1195 1390 1946 1809 1957 2003 2046 1928 2070 2143 2049 2210 1909 1820 1743 1893 1819 1720 1808 2575 2256 1714 1486 1675 1362 1261 1681 2366 1644 1578 1747 1870 1779 1757 1793 2106 2109 2059 1950 1730 1983 1736 1669 1713 1909 1799 1464 1374 1278 1635 1340 933 826 858 1260 1431 1119 1014 1589 1438 1331 1728 2107 2182 2050 2109 2054 2043 2084 1966 1973 2021 2022 1917 1872 1908 1807
191 231 329 241 447 436 928 1202 1172 1567 1982 1908 2092 2197 2088 2248 2305 1903 1658 1548 1350 1495 1449 1277 1242 1460 2067 2562 2494 2354 1473 1266 1147 1107 1429 2130 2138 1488 1622 1834 1774 1874 2200 2141 1850 1939 2147 2074 2232 2174 1909 1958 1921 1687 1478 1129 1025 1288 1313 1065 1235 1259 1045 899 1002 1025 1457 1962 1755 1748 1849 2101 2172 2102 2197 2004 1954 2009 1944 1958 1925 1916 1961 1935 1733
19 36 190 193 412 500 824 1019 1209 1546 1988 1983 2303 2199 2295 2248 2094 1392 1280 1045 1095 1248 1216 1300 1402 1724 1909 2146 2192 2279 1870 1465 1248 1275 1280 1929 2101 1602 1754 1740 1807 1916 2044 2058 1782 2015 2335 2684 3054 3081 2808 2053 2188 2001 1408 1521 1441 1298 1449 1456 1634 1581 1620 1335 912 714 1211 1538 1854 2069 2110 1970 2320 2409 2333 2239 1958 2027 1848 1943 1855 1857 1845 2046 1944
0 4 86 162 279 517 790 957 1088 1814 2230 1901 2092 2013 2134 1653 1343 1102 1110 1012 891 953 983 1356 1613 1782 1933 1975 2158 1948 1818 2110 2451 1908 2014 2117 2157 2224 2200 2148 2025 2354 2888 2653 2555 2622 2600 2274 2555 2416 1829 1914 1964 1941 1790 1826 1739 1492 1276 1450 1642 1854 1695 1317 1210 854 643 1031 1392 1558 2276 2532 2370 2558 2373 2382 2343 2081 2183 2021 2086 2000 1926 1992 1871
0 48 11 114 176 544 668 761 934 1591 2114 1713 1675 1537 1738 1068 1073 1047 1066 1017 960 1136 1240 1415 1476 1428 1626 1931 1958 2035 2017 2043 2668 3066 1926 1986 2284 2098 1832 2241 2517 2706 2897 2581 2253 2365 2404 2747 1945 1989 1716 1746 1895 1924 1720 1506 1430 1320 1199 1209 1408 1492 1543 1034 1164 796 1158 931 1062 1433 1526 1966 2736 2616 2513 2484 2290 2516 2301 2355 2242 2342 2248 2239 2134
0 23 16 179 130 416 400 607 740 1161 1633 1660 1556 1608 1269 996 1081 935 1065 1317 1047 926 924 1173 1180 1037 1380 1897 2043 2342 2413 2955 2968 3389 2131 1728 1681 2004 2313 2495 2588 2687 2330 2991 2075 2240 2664 1903 2321 2437 1959 1740 1973 2057 1987 1508 1262 1175 1444 1372 1355 1411 1401 1441 917 790 1047 1225 1345 1061 1174 1338 1470 2026 2733 2614 2731 2364 2308 2304 2553 2462 2508 2383 2232
0 9 32 176 117 275 352 605 634 876 1820 1517 1800 1558 1213 1042 1036 972 1329 1313 1122 960 906 834 952 1036 1360 1934 2411 2504 2501 2676 2510 3616 2411 1542 1532 2241 2530 2612 2944 2467 2490 3125 2489 1930 1825 2429 2216 2217 2180 1273 1477 1896 2148 2045 1561 1413 1295 1287 1404 1558 1686 1716 1610 953 1299 1136 961 1102 1033 1100 1035 1310 1482 2198 2565 2780 2608 2449 2212 2402 2600 2242 2526
0 5 78 257 183 342 297 411 524 648 1237 1549 1888 1764 1206 1169 1282 1047 1462 1680 1353 1187 1130 1256 1364 1598 1935 2461 3508 3323 4592 4173 3270 3342 2846 2126 1935 2102 2482 2918 3235 2687 2881 3220 2102 2274 2294 1989 2617 2184 2211 2528 1444 1502 1814 1859 1707 1551 1300 1211 1534 1644 1719 1634 1286 1300 995 932 953 504 719 462 464 919 1483 1329 2106 2546 2751 2746 2615 2244 1982 2472 2492
0 16 37 273 105 378 229 308 647 641 1296 1598 2018 1698 1616 1759 1241 1192 1305 1572 1406 1289 1524 1653 1851 2126 2397 2791 3520 3407 3063 3830 3280 3550 3662 2168 1950 2406 2732 3102 3053 3129 3270 2696 2763 2442 2586 2647 3030 2847 2476 2575 1618 1594 1494 1480 1342 1119 1227 1096 1567 1378 1093 1487 863 1377 976 666 699 788 615 785 1008 1077 792 978 861 2476 2354 3104 2915 2646 2774 2718 2699
0 18 36 230 302 253 216 364 653 773 1170 1698 1854 1488 1712 1718 1165 1318 1314 1644 1673 1383 1562 1791 1906 2017 2535 3103 3278 3108 3651 3868 3151 3566 3142 2196 2053 2460 2819 3322 2606 2685 3099 2845 2754 2841 2861 2826 2892 2100 2472 2242 2347 1724 1601 1394 1373 999 957 903 897 1358 818 799 823 789 866 474 586 621 530 708 512 537 694 968 925 1038 2576 3060 3055 2838 2691 3123 2993
0 33 132 316 361 285 399 617 740 792 1070 1719 1759 1457 1443 1312 1245 1331 1397 1855 1854 1835 1735 1802 1903 2097 2662 2640 3422 3456 3533 4558 3520 3697 3926 2907 2348 2695 3008 2925 3226 3367 3220 2648 2674 3260 3900 3000 2527 2674 2235 2177 2190 2334 1776 1626 1207 1104 862 690 1002 1139 1135 733 890 519 441 545 736 824 514 503 837 705 606 711 845 1236 1371 1653 1618 2254 3364 2890 3181
0 72 232 296 471 450 689 1013 696 889 1114 1317 1484 1220 1179 1209 1338 1228 1320 1762 2173 2213 1962 1884 1965 2209 2418 2897 3032 2920 3408 3744 3981 3734 3293 3325 3084 3156 3679 3319 2942 3491 3524 3009 3009 2582 2868 2518 2258 2638 2419 2216 1875 1556 910 1452 1286 1050 1048 756 814 735 626 844 638 472 440 356 529 492 452 394 528 587 689 615 693 806 756 1542 1992 1591 2267 4304 3368
32 193 341 356 543 558 826 1006 880 1008 1116 1169 1239 1344 1233 1188 1338 1291 1278 1760 2436 2220 2240 2005 1855 2328 2834 2889 2835 2901 3034 3185 3441 4249 3249 2995 3603 3156 3320 3693 3712 3606 3560 2978 2928 2914 2950 3691 2317 1951 1950 2734 2788 1870 1133 1345 1366 1023 811 714 650 649 737 574 584 416 726 483 276 328 547 475 617 606 535 517 352 380 712 1206 1921 2109 1928 2320 2897
34 252 397 472 545 633 955 1083 987 965 1104 1095 1251 1581 1356 1328 1288 1326 1546 1709 2186 2113 2082 1947 2032 2241 2229 2715 2847 3112 2700 3162 3444 3470 3772 3689 3528 3595 3370 3357 3677 2734 3301 3478 3182 3448 3615 2501 3312 3410 2328 2026 2595 1608 1777 1468 1075 796 738 810 668 732 916 878 496 516 510 407 592 465 424 422 378 432 675 1107 962 1188 1039 1546 1403 2012 2331 2339 2428
59 213 350 476 420 788 1328 1213 1044 935 879 1277 1121 1582 1614 1458 1689 1746 1546 1598 1859 1830 1868 2026 2324 2015 1533 2305 2948 2882 2888 2903 3150 3060 2968 3669 3630 3370 3162 3175 3085 4542 4648 3726 3459 3111 2746 2516 2778 2512 2390 1638 1651 1592 1453 1222 1439 934 996 747 556 920 960 742 821 377 347 354 647 186 290 324 739 712 832 1090 763 890 976 1113 1640 1598 2412 2622 2180
154 233 317 381 363 789 1299 1556 1289 1052 1054 1319 1398 1582 1794 1889 2688 2379 2307 2020 1750 1872 2133 2174 1928 2164 2103 2105 2685 3106 2656 2553 2606 2985 2800 3285 3749 3820 3505 3347 3576 3063 3491 3070 3213 2962 3090 2975 2866 2363 3020 2468 1724 1976 1732 1313 1376 1732 1104 924 711 797 858 757 603 788 457 299 311 4 316 365 374 771 790 790 345 880 1125 1247 1697 1995 2125 2376 2545
240 255 255 295 341 644 1279 1711 1366 1283 1036 1639 1663 1629 1773 1901 2512 2633 2656 2387 2097 1995 2166 2086 1724 1787 1973 1894 2217 2594 2165 2912 2698 2752 3006 2899 3570 3927 3582 3426 3964 3516 3381 2841 2871 2440 2580 3208 1984 2799 1726 2771 3055 1793 1400 1545 1488 1226 1388 1300 2256 1627 1498 973 793 884 985 215 69 93 396 328 176 510 568 399 1048 474 324 1213 1217 2176 2331 2819 2590
262 280 220 274 378 713 1348 1570 1786 1387 1140 1863 1768 1776 2079 2089 1979 1918 1964 2136 2049 1860 1943 1505 1513 1534 1633 1935 2030 2465 2291 2754 2704 2948 3367 3396 3529 3587 3582 3899 3374 3647 3257 2987 2246 2563 1438 2517 2305 2884 2828 3327 2909 3477 2576 1609 1832 1548 1309 1240 1389 1596 1416 1803 943 724 797 717 782 324 254 216 252 341 529 854 478 789 470 864 1039 1977 2095 1707 1869
251 243 212 275 522 1016 1474 1744 1767 1583 1409 2008 1857 1846 2194 2074 1764 1524 1477 1475 1392 1729 1798 1691 1523 1554 1828 2008 2322 2424 2263 2933 2536 3189 3658 3825 3964 3343 3996 3632 3610 3088 2854 2802 2755 2418 2958 3058 3268 3837 4071 3316 3818 3416 2694 2051 2183 3069 1971 1604 1249 1599 1256 1209 1265 1058 726 781 644 360 242 378 401 426 516 373 561 668 717 878 643 585 1144 1300 1330
338 270 262 367 584 1104 1673 1930 1832 1876 1582 2088 2045 1832 2220 1996 1660 1401 1474 1327 1124 1420 1642 1824 1960 1613 2132 2187 2441 2485 2298 3025 3326 2698 3748 3367 3274 3868 3253 4345 3278 3363 2603 2783 2464 2702 2870 3551 3288 3991 3366 3534 3607 3298 3441 3572 2209 2045 1265 1972 1740 1197 1047 1054 350 1143 1362 736 386 495 341 431 258 327 446 776 455 733 845 586 755 908 886 1369 1507
446 610 372 373 788 1342 1880 1905 1881 1917 1959 2425 2398 2025 1836 1702 1726 1406 1571 1577 1102 1113 1391 1642 1824 1982 1992 2416 2441 2854 2426 2310 3251 3489 2857 3938 3101 4073 3543 3341 3461 2972 2172 2111 2615 2970 3653 3266 3512 3384 3449 3420 3959 3532 2715 3298 2661 2781 1586 2931 2358 2144 1711 970 699 962 624 956 576 320 254 395 667 419 652 589 633 708 942 778 1163 1084 1348 1546 1734
713 694 483 349 628 1218 1942 2107 2080 1980 2034 2593 2741 2343 1463 1540 1745 1605 1595 1643 1514 1296 1457 1819 1914 1970 2222 2205 2442 2950 2733 2232 2284 2463 3224 2793 3354 3570 3005 3142 2951 3084 2605 2706 3056 2590 2536 2704 3082 4021 3172 4376 3174 3925 3320 3524 2979 3102 2485 2368 2327 1708 1804 1372 1335 1426 1075 459 1068 765 479 283 556 379 620 676 789 648 479 1087 1328 1189 1710 1735 1982
Wind_Speed
8 7 7 7 9 9 6 4 4 5 8 11 10 8 6 5 3 2 1 2 2 3 3 4 4 6 7 8 9 9 9 9 9 9 10 9 9 9 9 7 6 5 6 8 9 11 12 13 15 17 17 16 15 13 11 13 15 10 9 12 12 12 11 11 9 9 10 11 12 10 9 9 8 7 6 4 3 1 3 2 2 4 5 6 7
10 8 6 4 4 2 0 1 2 3 4 10 9 8 7 6 4 3 1 0 1 2 2 4 5 6 7 8 9 9 8 8 8 10 11 10 9 8 5 6 6 6 7 7 9 11 13 14 15 16 17 17 19 13 10 13 14 12 10 12 14 12 11 11 10 10 10 10 11 12 10 9 9 7 7 6 4 3 5 4 5 4 4 7 7
7 4 3 2 3 1 1 3 3 3 2 3 7 7 8 6 4 2 1 1 3 3 4 4 5 5 6 7 7 8 7 7 8 9 9 8 7 6 6 4 5 6 7 7 8 11 13 13 15 16 16 16 19 14 13 14 14 14 13 12 13 12 11 9 9 9 10 9 9 11 10 10 9 8 7 7 8 9 9 8 8 9 5 7 6
7 4 3 3 4 3 4 5 4 2 1 1 2 7 7 5 3 1 2 2 3 3 4 4 5 6 7 8 7 6 7 8 8 8 8 7 5 5 6 5 5 6 7 7 8 10 12 13 14 15 14 15 18 15 13 13 14 16 15 13 12 13 11 9 7 7 8 8 6 5 5 5 7 8 8 8 8 8 9 9 10 9 7 6 7
6 5 5 5 6 4 5 4 3 2 1 2 2 3 4 3 2 2 2 2 3 4 4 5 7 8 7 5 5 5 6 7 7 7 7 5 5 6 7 8 7 6 7 8 9 10 12 13 14 15 14 15 18 17 13 13 15 17 15 11 13 11 10 10 6 5 3 3 5 6 6 6 5 7 8 9 8 9 9 12 10 8 7 6 6
5 5 6 5 5 4 5 4 3 3 2 2 2 2 2 4 3 3 3 3 4 4 5 6 5 3 3 3 4 5 6 6 6 7 8 7 6 6 7 7 7 7 7 6 8 9 11 14 15 15 15 16 17 16 12 13 14 17 14 9 11 9 9 12 7 2 3 5 5 7 5 4 4 5 9 7 8 9 10 10 7 5 7 6 3
5 5 5 4 4 4 5 5 5 3 2 3 5 3 2 5 3 3 4 4 4 4 4 2 1 1 1 3 4 5 5 5 8 10 7 6 7 6 7 8 7 7 8 7 8 9 11 13 14 15 15 15 16 16 12 12 12 14 12 10 10 9 11 11 5 4 7 8 8 7 5 3 3 5 8 8 9 10 10 10 8 7 6 2 4
4 4 4 4 4 6 7 6 4 3 4 7 6 0 5 5 4 4 4 3 1 2 1 1 2 2 3 4 4 6 6 8 9 8 6 7 8 8 8 8 7 7 7 8 8 9 10 12 14 15 14 13 15 15 12 8 8 11 12 8 7 8 7 6 4 9 16 12 7 10 9 3 4 5 7 8 9 10 8 7 7 5 3 2 3
3 3 4 3 4 6 6 4 3 3 7 7 1 4 5 4 3 1 0 1 0 1 1 1 2 2 4 5 5 6 7 8 9 7 8 8 7 7 7 6 5 6 7 8 9 9 9 10 11 13 13 12 14 15 12 7 6 8 7 5 6 6 4 2 5 7 10 10 7 4 5 3 5 6 7 7 7 7 5 5 7 7 5 5 5
4 4 4 4 5 7 5 4 6 7 5 1 3 4 2 1 4 2 1 2 1 1 1 2 3 4 4 5 6 5 6 7 7 6 5 5 5 4 4 5 5 4 6 7 8 7 8 8 9 9 10 10 12 13 11 6 5 6 5 5 4 4 5 7 11 9 8 8 3 2 5 3 6 6 7 6 8 11 11 10 6 5 5 7 9
7 5 6 6 7 9 8 7 5 2 1 2 2 3 2 4 5 3 3 2 2 1 1 2 3 4 4 5 5 5 5 4 4 3 3 4 4 4 3 3 4 5 5 5 5 5 5 7 6 6 7 8 9 10 9 6 4 5 5 2 2 5 9 10 7 10 8 7 6 5 3 8 6 6 6 7 8 9 9 8 8 8 8 8 8
5 6 6 5 7 6 5 3 2 2 2 4 5 5 5 8 7 4 4 3 2 2 1 1 3 3 3 5 3 4 4 2 1 2 3 3 2 4 4 4 3 3 2 3 3 3 4 5 5 5 4 6 9 10 9 6 1 6 7 9 10 8 9 10 7 5 5 6 6 5 3 4 5 5 7 7 7 8 8 8 7 8 8 8 8
5 6 6 7 6 6 5 4 4 4 6 6 7 8 9 8 4 3 2 3 3 2 2 1 2 2 3 4 3 3 3 2 3 3 3 4 3 3 4 3 1 1 2 1 2 3 4 5 4 4 4 5 7 9 8 6 4 2 7 11 12 12 10 6 4 2 4 4 5 4 3 4 5 5 6 6 6 6 7 8 7 8 8 7 7
9 7 7 6 5 8 7 7 7 7 7 8 9 9 9 7 5 3 2 3 2 1 2 2 1 1 2 2 1 2 3 3 3 3 3 3 2 2 3 2 2 1 1 2 1 2 3 4 2 2 3 4 5 5 5 3 1 3 7 11 11 10 9 10 7 5 5 4 6 3 3 3 3 3 5 4 5 6 7 8 7 7 6 6 6
8 8 6 7 8 7 9 8 9 8 8 9 8 8 7 6 5 3 2 2 2 3 2 1 1 2 1 1 1 1 1 3 5 3 2 4 3 3 4 3 3 2 1 3 2 1 2 1 1 2 2 3 2 1 1 1 1 4 7 10 11 9 7 9 8 6 7 7 3 2 2 1 3 4 4 4 5 6 7 7 5 5 4 4 4
6 9 10 8 7 7 8 8 9 9 9 9 7 7 6 5 4 3 3 2 2 2 2 2 2 2 1 1 1 1 1 2 4 3 3 4 5 4 3 3 3 2 2 1 1 1 1 1 1 1 2 1 2 1 2 3 3 4 5 8 9 6 4 6 8 7 10 5 3 2 1 1 3 3 4 5 6 5 4 4 3 3 3 2 2
6 7 7 7 9 8 7 9 8 9 9 7 6 5 4 4 3 2 3 3 2 2 3 3 3 2 2 3 3 3 2 3 4 2 3 4 5 4 2 2 3 1 0 1 1 1 2 2 2 2 2 0 2 2 3 4 4 5 7 9 11 9 5 8 6 5 6 3 3 3 2 2 2 3 4 5 5 3 2 1 1 2 1 1 1
6 6 6 8 8 8 8 7 9 10 9 8 6 4 4 3 3 3 4 5 4 4 4 5 3 2 3 4 4 3 2 3 3 2 2 5 6 4 3 3 3 1 1 1 2 2 2 0 0 1 2 3 4 6 7 6 6 6 9 12 13 13 6 8 4 6 7 4 3 2 2 2 4 4 4 4 3 1 1 1 1 0 1 2 2
5 5 7 8 6 4 6 7 9 8 7 7 6 3 4 3 4 4 5 6 7 6 6 6 5 4 4 5 4 3 4 4 3 3 4 5 4 4 3 3 2 1 2 2 2 3 2 1 2 2 2 3 5 7 7 8 7 8 9 13 16 14 16 6 4 4 4 4 3 1 2 2 4 4 4 3 3 3 3 3 3 3 3 4 4
4 6 6 6 4 6 7 8 7 7 7 8 5 3 4 6 4 4 6 6 7 8 8 7 5 5 4 5 5 5 4 3 2 4 3 5 5 4 5 7 4 2 2 3 4 4 5 5 4 4 5 3 5 7 8 8 8 8 12 14 16 18 13 5 1 3 2 0 1 3 2 5 4 3 3 4 4 5 5 6 6 6 6 6 6
6 6 7 7 7 5 8 8 8 7 10 4 5 4 4 5 4 5 7 6 7 8 8 8 6 4 4 4 4 5 4 4 6 6 6 9 6 6 8 8 2 2 1 2 4 5 6 6 7 6 5 6 7 6 7 8 9 11 12 16 16 14 5 4 3 3 2 1 2 3 3 3 4 5 5 5 6 7 7 8 8 8 8 8 8
6 6 6 8 5 6 9 7 7 3 5 4 8 6 7 7 5 7 7 6 7 7 10 10 8 6 5 8 6 6 9 9 7 6 10 9 8 8 8 4 1 2 2 5 7 8 9 10 9 10 8 9 9 9 9 9 10 11 16 15 15 5 5 4 2 5 3 2 3 4 4 5 6 7 7 7 8 8 9 9 8 8 9 10 9
7 6 7 7 7 7 7 7 6 6 5 1 7 7 8 8 7 9 7 8 9 10 12 12 10 9 10 9 10 8 9 10 8 9 10 9 9 10 9 6 1 2 6 9 11 11 12 15 17 16 16 16 13 10 10 9 10 14 15 15 7 7 5 5 3 3 4 3 5 4 6 7 8 9 8 9 10 10 9 9 10 10 10 10 10
6 7 6 7 7 8 7 6 6 6 4 5 6 7 7 9 9 9 8 9 11 12 14 15 13 11 11 10 12 6 7 11 5 2 10 12 10 8 8 6 5 7 8 9 12 14 16 19 22 20 19 19 14 11 11 10 11 11 10 8 8 7 6 6 5 5 5 6 8 7 8 9 10 10 10 10 11 11 10 10 10 11 11 11 12
5 5 6 6 7 7 7 6 7 7 6 5 8 8 8 9 9 8 12 10 10 10 11 12 13 12 12 9 11 8 10 11 9 9 15 17 14 12 12 12 10 10 11 12 15 15 18 18 19 22 19 20 15 13 12 12 12 12 11 10 9 8 7 8 7 8 9 11 11 9 9 10 11 12 11 12 12 11 11 11 12 12 12 12 12
3 5 6 5 6 7 7 7 7 8 8 7 6 11 10 12 12 13 12 14 10 11 11 12 13 15 21 14 11 13 13 12 13 15 16 16 15 14 13 12 12 12 13 16 17 18 20 20 21 21 23 15 14 14 13 13 12 12 12 12 11 11 10 10 11 12 12 13 13 11 11 10 11 12 12 12 12 11 13 13 13 13 13 13 11
4 3 5 5 5 7 6 7 6 7 8 7 8 9 10 14 9 9 13 11 13 15 17 16 13 15 21 13 16 12 13 16 17 17 14 12 13 14 14 10 11 12 13 16 19 21 20 20 21 21 14 16 14 15 15 13 13 12 12 13 13 13 14 13 14 14 14 14 13 12 12 12 12 12 13 13 12 13 13 14 13 13 13 12 10
3 3 4 4 6 4 6 6 6 7 8 9 9 11 11 10 8 10 14 10 13 16 11 13 12 16 15 15 12 13 13 14 16 14 18 18 16 14 12 8 9 14 15 19 20 18 18 22 23 14 15 16 16 16 15 15 15 14 13 14 15 16 16 16 15 15 15 15 15 14 13 13 12 13 13 13 13 14 14 14 14 13 12 10 9
2 3 4 4 5 2 5 5 6 6 7 9 9 10 11 11 10 13 9 14 14 11 11 12 14 14 13 15 14 12 14 14 14 12 11 11 10 11 11 8 12 10 15 12 17 17 17 18 23 14 14 17 16 16 17 15 16 15 15 15 15 16 16 17 17 16 15 15 15 14 14 14 14 13 14 14 15 15 15 14 13 12 10 10 9
2 3 3 3 2 3 4 4 5 6 6 7 10 10 11 11 12 11 12 13 11 11 11 13 12 13 12 13 14 14 13 13 12 13 13 13 12 12 10 9 10 12 11 14 10 18 17 16 14 12 11 16 16 16 17 17 15 16 16 15 16 15 17 17 17 16 15 14 14 14 16 16 15 15 15 16 15 15 13 13 12 10 10 10 11
2 2 3 5 2 3 2 2 3 5 7 6 9 9 10 11 12 12 12 12 10 11 12 12 11 10 10 12 13 16 13 12 12 13 14 14 13 13 9 8 8 8 10 9 9 9 9 14 13 10 10 12 14 15 16 16 16 16 16 16 16 16 16 16 16 16 15 14 13 14 15 17 17 17 17 16 15 13 11 9 9 9 9 10 12
nan nan 4 4 1 2 1 1 2 5 7 5 8 8 8 10 11 12 12 11 12 11 11 11 11 10 10 11 13 13 12 11 11 12 13 14 12 15 11 9 7 6 9 8 8 6 6 8 9 10 8 11 12 14 15 16 17 17 17 16 16 16 16 16 14 12 12 13 13 13 14 16 18 18 17 16 14 12 10 9 9 11 10 12 13
nan nan nan 3 1 1 2 1 1 4 6 5 7 7 8 9 9 11 11 12 11 11 10 9 10 10 9 10 10 12 12 11 11 11 12 12 11 12 11 10 8 7 11 8 6 10 15 12 10 11 9 9 10 12 13 15 16 16 16 14 15 14 13 12 13 13 11 12 13 12 12 13 15 18 17 15 13 11 10 11 11 11 13 13 13
nan nan nan 2 3 4 3 3 2 3 5 6 7 8 8 7 9 10 10 12 11 10 9 9 9 9 8 8 9 10 10 10 11 12 11 10 10 9 10 11 10 9 8 11 9 10 10 11 14 13 10 11 10 10 11 13 14 14 14 13 13 12 12 11 11 11 11 9 9 10 10 10 13 13 13 16 14 13 14 14 14 14 14 15 15
nan nan nan 4 3 4 3 4 2 2 4 6 7 8 8 8 8 8 9 12 10 10 9 8 9 8 7 7 8 8 8 9 10 12 10 10 8 9 9 9 10 11 10 10 11 9 14 8 8 17 10 11 10 11 10 12 12 12 12 12 11 10 10 9 9 9 8 9 9 8 9 10 10 11 11 12 15 17 17 17 17 17 17 16 18
nan nan nan 5 4 5 2 4 1 2 4 5 7 8 8 8 8 8 7 10 10 9 9 7 7 7 7 6 7 7 7 8 9 12 11 8 8 7 7 8 9 10 10 12 12 8 9 9 7 13 13 8 9 9 10 9 10 9 10 10 9 9 8 8 8 7 7 9 7 8 8 9 9 8 11 11 12 15 20 20 19 19 18 19 20
nan nan nan 6 5 7 3 4 2 3 3 4 6 7 8 9 8 7 6 8 8 8 8 7 5 6 5 5 5 6 6 7 8 10 10 8 6 6 6 6 8 7 8 15 9 11 8 7 10 6 12 12 7 7 7 9 9 9 8 8 8 9 7 7 6 6 7 7 10 8 8 7 8 10 12 10 12 12 19 19 20 20 21 21 22
nan nan nan 6 4 7 3 5 4 3 5 5 6 6 8 8 8 8 7 7 7 6 6 6 6 4 4 4 5 5 5 6 6 9 11 7 7 6 5 6 7 7 9 9 9 8 8 8 7 9 9 12 8 6 6 8 9 9 9 6 8 7 6 6 5 6 6 7 7 7 7 9 11 11 9 7 7 12 13 18 20 20 21 22 22
nan nan nan 8 7 8 7 7 5 4 6 5 6 7 8 8 8 7 6 7 7 5 5 4 4 4 3 2 4 5 5 5 5 6 7 6 5 4 5 7 6 7 8 8 6 6 7 7 6 6 9 8 8 7 7 7 8 7 8 6 7 8 6 6 7 6 8 5 6 9 7 10 6 8 10 12 10 8 11 13 16 16 17 22 21
nan nan 6 7 8 9 9 8 6 6 6 7 6 7 7 7 7 7 6 6 6 5 4 3 3 2 1 1 3 4 4 5 4 5 7 5 4 5 4 7 6 7 7 7 5 5 5 5 5 5 6 6 6 7 5 6 6 7 8 7 6 6 6 6 7 6 6 5 8 12 8 7 8 8 9 9 9 7 9 11 14 14 12 17 20
nan nan 5 7 7 9 9 7 6 8 6 7 6 6 6 6 7 5 5 5 5 4 4 3 3 0 1 0 2 3 3 3 4 4 5 5 5 4 5 6 5 5 6 6 5 5 6 5 5 7 5 6 5 6 3 7 5 3 7 5 5 6 4 9 9 6 6 4 7 8 8 6 7 9 9 7 11 9 9 13 15 13 12 11 14
nan 7 5 7 8 8 10 9 8 9 7 6 7 6 6 6 6 6 6 5 5 4 4 4 2 3 1 1 1 2 2 2 2 3 3 4 4 4 4 5 7 5 7 6 5 5 5 6 5 5 7 5 5 5 5 6 5 4 4 3 3 4 5 6 10 5 7 5 4 6 11 7 8 9 7 9 10 9 10 12 14 10 10 12 10
nan 6 5 6 8 10 11 11 9 8 7 6 6 6 5 6 6 7 6 6 5 5 5 3 3 2 2 1 1 2 0 1 1 1 3 3 3 5 4 4 5 4 5 5 4 4 5 4 5 5 4 4 4 3 3 9 4 3 5 3 2 2 5 7 7 5 6 5 6 6 9 4 8 10 10 10 10 9 8 8 8 10 9 9 10
nan 5 5 5 8 11 12 11 11 9 8 7 5 6 6 6 8 8 8 7 6 6 5 3 7 2 2 2 2 2 1 1 1 0 2 3 4 3 5 5 4 5 4 4 4 3 3 5 4 3 4 2 2 1 2 5 7 2 3 2 0 3 3 4 4 2 3 6 7 1 7 4 6 8 11 10 5 6 7 8 7 8 9 8 10
6 6 5 6 8 9 12 11 12 9 7 7 5 7 8 8 11 10 11 11 8 8 6 5 4 3 3 1 2 2 2 2 2 2 1 2 3 5 6 5 5 4 4 3 3 1 1 1 3 3 3 3 4 1 3 2 4 7 4 6 3 2 4 3 2 10 10 5 4 nan 11 6 4 10 11 7 5 9 8 4 6 7 8 8 10
6 7 5 6 6 9 12 11 12 10 7 8 6 8 9 9 10 11 10 9 8 6 4 4 4 3 3 2 3 2 2 2 1 1 0 1 2 4 5 5 5 6 5 6 6 6 3 0 1 3 2 2 5 5 0 5 3 3 4 6 9 5 7 9 9 5 13 6 nan nan 7 5 4 6 7 5 6 5 6 4 6 7 8 10 10
7 7 6 6 6 8 10 11 13 11 9 8 7 9 10 9 8 8 8 8 7 6 7 7 6 5 4 4 3 2 1 2 2 2 1 1 1 2 3 4 5 5 6 6 5 2 5 3 3 1 2 3 3 4 5 3 4 5 4 3 5 5 4 5 6 7 7 12 15 3 5 4 2 3 5 5 3 5 7 6 7 7 6 10 9
7 8 6 7 7 8 9 10 13 12 11 10 7 10 11 10 8 8 8 7 7 8 7 8 8 6 7 5 5 3 1 2 3 1 2 1 0 1 3 4 4 4 4 4 4 11 7 7 4 3 3 1 2 4 6 10 3 5 6 6 3 7 7 7 4 6 7 8 10 8 3 4 5 6 5 3 4 4 4 9 5 8 7 7 9
7 7 5 8 8 8 8 9 13 14 12 11 9 10 11 10 10 8 8 8 8 9 9 9 10 8 8 7 6 5 2 1 2 4 2 2 1 1 1 2 2 3 3 2 3 4 3 4 4 2 1 1 2 1 3 5 7 5 4 8 8 5 6 4 5 8 8 8 5 9 11 10 6 9 11 7 3 2 4 5 10 8 6 6 8
6 7 7 8 8 8 7 8 12 14 14 13 11 10 10 11 10 8 7 8 9 10 10 11 10 10 9 7 6 6 3 1 1 3 3 2 2 1 1 1 2 1 4 3 2 3 1 2 2 1 1 1 0 1 3 4 3 10 4 7 8 9 8 7 6 6 7 10 9 5 4 5 8 7 6 7 7 7 5 3 7 7 5 5 7
4 6 6 7 8 8 8 8 10 14 15 14 12 11 10 11 10 8 7 8 9 10 11 11 10 9 8 6 6 6 4 2 1 2 3 4 3 2 2 2 2 2 4 2 1 3 2 2 1 2 1 2 0 2 4 4 5 7 7 6 7 6 7 7 9 11 7 7 11 12 5 7 7 3 9 10 11 4 8 10 2 5 6 6 9
Wind_Direction
17 357 29 24 25 18 14 4 13 29 33 3 354 338 328 317 320 340 312 217 218 211 205 198 196 192 191 193 196 195 192 190 188 190 190 192 194 197 214 232 242 256 268 279 285 285 282 275 271 268 265 260 258 250 244 247 251 245 254 258 255 255 253 256 266 270 270 261 262 254 235 228 220 210 207 204 207 215 281 271 157 191 198 202 206
360 358 16 33 65 13 263 127 94 66 21 7 352 331 312 310 329 357 2 326 220 195 193 190 189 189 188 191 193 192 188 187 191 199 197 195 199 207 229 269 283 281 285 287 289 284 276 274 275 270 261 261 252 242 244 247 248 253 248 250 248 251 258 263 265 270 272 269 260 252 242 221 209 204 208 198 196 210 235 215 199 185 193 217 207
349 358 11 354 78 89 29 38 89 76 33 15 350 324 315 321 336 356 5 198 195 188 185 186 187 189 193 199 199 194 189 189 196 200 199 202 207 228 246 263 285 299 304 304 292 285 282 275 272 270 264 264 259 245 246 256 255 248 240 240 246 247 259 260 260 267 272 270 253 250 244 222 208 209 217 213 211 209 216 217 211 217 199 222 217
346 359 13 351 26 46 19 22 75 91 100 148 339 324 322 321 315 256 197 196 191 184 178 178 182 197 209 208 197 191 193 193 194 199 202 203 211 254 286 296 310 297 288 293 290 286 289 286 280 272 272 265 259 250 245 251 251 248 242 244 246 253 263 261 255 263 272 276 266 236 185 184 197 220 231 232 231 226 224 224 224 226 225 218 220
341 12 9 24 32 36 25 21 47 86 106 93 122 315 316 296 256 201 189 177 173 171 173 180 197 200 206 203 188 193 197 194 197 207 210 218 231 256 280 305 295 289 293 294 293 291 288 286 282 278 273 264 262 257 241 243 243 245 239 238 248 245 259 261 248 254 259 257 225 169 183 180 176 223 229 229 230 232 230 227 217 221 223 217 219
6 15 26 32 32 33 32 19 360 2 78 104 127 46 322 260 228 188 172 172 169 173 184 191 192 191 195 208 213 205 209 202 210 220 218 223 237 250 269 278 288 284 279 281 284 288 292 291 286 278 271 264 265 265 248 240 244 252 247 232 228 202 241 244 231 231 157 144 144 145 169 173 176 184 227 231 231 231 232 233 230 224 221 224 219
3 41 38 35 61 33 24 9 346 360 66 79 74 40 272 237 211 176 175 177 175 178 178 193 176 194 256 264 255 239 230 228 228 222 228 234 243 260 270 278 278 278 284 288 288 288 292 291 287 281 271 269 267 264 258 240 235 250 252 249 237 228 235 231 210 166 122 105 126 134 139 180 191 174 224 219 224 229 233 244 224 221 229 201 201
30 61 49 54 64 33 32 28 5 11 53 66 55 285 230 216 189 174 185 172 175 149 70 14 1 337 312 288 273 265 258 248 241 246 248 248 254 259 261 267 266 275 281 290 285 286 290 286 292 288 282 279 279 275 262 240 237 247 248 247 229 209 215 217 142 126 123 120 132 146 118 160 210 188 225 221 223 236 246 247 264 243 227 209 222
44 47 50 36 43 21 36 34 19 39 56 59 121 212 215 208 171 140 285 30 352 27 31 348 297 293 288 281 271 268 252 253 263 265 263 257 254 250 250 253 256 270 294 292 288 290 287 281 281 284 284 281 282 282 275 244 222 237 245 242 217 204 176 99 91 97 118 114 117 103 113 168 220 210 223 219 210 229 247 272 259 259 259 261 264
9 45 51 46 36 24 27 30 37 36 50 131 184 201 200 197 70 26 295 245 275 290 317 271 277 290 284 273 273 266 262 257 251 256 266 265 263 252 230 229 236 249 280 286 282 286 289 287 284 281 285 284 284 284 284 273 225 195 211 225 181 168 128 91 90 127 119 96 95 129 130 205 210 205 230 234 240 242 240 235 249 263 270 268 262
5 19 45 19 353 5 7 16 13 27 91 134 117 60 29 20 47 24 311 341 314 296 220 282 285 278 283 280 276 276 268 253 254 246 240 238 221 214 222 243 252 267 281 289 291 285 289 293 289 277 288 298 298 297 293 273 215 153 132 188 112 78 67 70 111 131 120 109 109 109 178 215 203 210 240 241 248 253 251 251 253 259 260 262 266
358 7 20 13 343 346 358 8 15 33 56 53 45 36 7 38 36 12 342 331 325 301 293 299 298 292 282 280 267 263 263 248 209 183 191 208 211 202 216 232 255 277 267 292 301 304 304 301 298 298 299 308 303 292 272 263 301 94 140 158 153 135 113 61 49 90 113 141 135 143 190 209 221 229 248 246 248 256 260 261 261 266 269 264 264
355 5 10 8 357 348 5 12 19 36 41 42 33 24 25 21 25 26 343 314 308 319 356 9 325 315 285 279 270 238 229 193 146 151 186 184 190 182 183 193 192 356 344 309 317 326 305 289 295 313 313 300 291 290 308 336 7 110 147 146 142 140 125 179 169 146 111 120 138 153 189 193 216 232 246 257 266 271 274 273 272 270 270 273 273
360 9 4 10 8 349 360 14 21 29 39 39 28 20 17 8 4 26 8 325 312 18 20 6 13 4 297 295 269 203 191 156 117 131 163 128 126 139 138 122 94 92 339 354 1 338 285 267 281 310 321 301 290 298 301 303 311 148 147 144 143 149 177 185 170 150 142 107 99 173 189 169 219 226 251 268 282 277 275 273 275 273 274 280 279
351 355 347 5 1 6 355 13 21 27 37 39 26 17 11 0 360 6 1 10 5 28 45 40 54 40 349 253 158 155 161 128 119 116 111 94 80 79 82 90 124 130 39 25 25 306 264 269 345 338 327 307 277 317 279 219 191 163 149 140 135 140 184 137 134 110 111 103 123 175 186 218 255 263 282 285 276 275 276 276 273 268 267 270 279
7 354 1 0 352 10 28 19 19 28 36 37 25 9 14 2 353 356 16 24 39 43 34 36 42 14 19 65 99 56 8 73 82 87 78 69 81 80 101 121 99 68 53 35 348 243 314 17 7 332 297 300 338 75 130 147 153 147 135 128 121 104 46 66 87 92 88 108 124 111 181 227 270 297 293 287 291 297 276 270 270 271 269 264 252
16 13 1 348 358 17 27 36 30 23 32 31 13 10 354 2 336 343 40 37 45 55 45 46 21 7 24 54 51 45 27 60 64 58 63 48 53 59 97 105 88 56 334 207 205 348 346 350 5 294 255 219 79 94 128 135 135 119 113 107 106 100 84 65 53 83 112 92 79 63 58 37 349 313 316 314 308 304 303 264 263 275 267 234 194
23 16 7 7 14 18 27 31 33 44 43 26 351 343 352 350 2 6 22 36 40 38 45 30 23 359 24 45 43 44 18 48 54 42 48 39 43 53 88 96 102 87 17 351 25 21 10 283 228 222 184 121 104 121 121 111 113 117 110 107 98 94 33 59 61 25 20 15 42 47 68 322 327 336 332 325 338 360 71 99 110 138 111 114 113
31 20 26 22 15 23 20 37 51 53 58 63 50 9 353 7 25 22 27 34 37 34 37 42 32 14 12 40 38 31 50 33 22 37 38 37 40 89 115 134 97 42 337 1 23 35 33 27 4 31 47 89 113 107 107 110 107 108 103 96 98 89 96 71 49 26 17 14 44 76 55 355 352 351 354 14 39 59 75 90 89 91 100 101 106
52 39 45 41 336 32 49 48 53 59 70 76 60 21 5 7 14 39 29 34 38 39 41 50 34 19 24 36 37 35 42 54 34 75 101 106 99 106 108 100 71 335 315 5 28 39 32 40 39 31 46 97 114 108 109 114 106 103 93 93 85 86 82 79 51 132 69 27 57 65 11 358 1 29 43 47 61 74 82 87 86 87 92 95 100
86 63 70 65 358 9 70 73 56 36 60 91 98 63 40 22 49 43 38 39 55 54 56 51 41 39 39 37 53 86 94 100 101 98 100 112 102 55 59 58 9 278 289 60 61 58 57 52 43 49 70 89 113 115 120 118 112 95 92 87 90 94 109 84 63 44 43 44 47 48 41 19 44 63 65 72 78 80 77 79 83 84 88 93 95
70 82 77 78 77 35 37 59 69 83 91 110 107 96 86 79 65 65 61 51 47 57 74 80 65 79 67 67 82 85 102 108 94 89 99 92 96 80 73 72 254 242 88 66 64 58 62 57 51 52 60 71 64 117 122 115 101 96 89 92 98 120 101 118 149 147 143 76 55 47 42 61 71 73 75 77 76 77 78 81 84 83 83 84 87
66 70 75 70 80 78 68 70 75 48 44 44 73 92 79 86 79 80 76 43 34 48 74 82 90 76 77 68 65 58 80 94 88 91 89 90 100 101 110 123 100 37 52 54 58 56 50 53 53 56 58 54 85 114 114 109 103 82 87 95 125 124 132 119 110 56 63 71 75 59 75 79 81 79 78 76 78 76 79 80 81 82 79 80 81
58 68 66 78 70 73 70 74 73 64 45 70 72 76 98 91 91 95 84 68 51 52 59 78 88 79 78 94 109 100 80 88 87 91 103 88 73 73 81 74 60 49 36 65 67 64 54 53 56 56 67 85 100 101 118 119 110 107 118 134 123 117 104 97 96 103 95 90 93 69 80 81 81 78 77 79 73 74 76 74 75 73 73 76 81
66 67 76 65 62 65 63 71 69 72 68 45 60 67 63 70 81 99 105 110 98 92 83 90 86 93 85 77 64 49 61 62 54 59 67 63 54 42 46 65 63 61 62 85 85 83 81 78 76 75 86 85 104 118 119 126 130 134 134 126 114 106 110 109 113 105 101 96 96 81 80 79 77 77 72 72 72 72 70 67 67 71 73 76 79
69 69 66 58 60 65 67 67 62 76 91 72 47 64 75 79 44 51 42 54 71 57 75 74 81 68 73 40 40 35 38 69 53 49 49 57 62 47 46 59 56 73 81 70 84 86 85 84 83 84 86 100 108 114 117 120 123 125 124 119 118 112 110 107 107 108 107 101 92 83 81 78 73 75 71 65 65 62 62 64 65 68 74 75 79
93 80 76 75 66 67 70 64 70 82 91 114 103 79 54 69 87 69 76 80 68 75 55 52 51 61 70 65 58 49 40 28 34 35 49 68 84 77 85 89 78 82 86 79 80 79 79 81 80 78 86 85 90 96 106 113 111 109 113 113 113 113 111 112 109 107 105 101 90 78 77 73 71 66 66 67 65 67 67 65 68 71 73 77 80
120 79 79 79 77 59 73 72 73 85 100 109 105 108 117 104 104 101 92 88 81 72 78 75 75 75 76 74 69 60 60 54 48 39 38 42 36 52 91 91 93 104 110 104 99 110 109 97 92 88 83 82 82 89 93 97 107 108 105 110 110 114 117 114 111 103 96 92 84 72 69 69 67 66 64 62 64 67 68 71 72 73 74 77 73
132 91 97 72 65 80 66 66 74 77 103 112 116 118 112 115 100 99 109 91 95 100 89 80 75 77 80 82 84 77 74 70 69 70 67 59 66 60 60 40 48 55 62 81 96 88 95 95 94 96 97 96 95 95 98 101 101 108 107 106 110 109 109 108 103 96 91 83 81 70 59 59 60 60 61 60 59 60 63 67 73 74 75 72 68
171 116 109 110 85 51 64 73 79 87 103 115 126 123 125 114 110 110 109 103 113 101 87 88 86 80 84 99 103 95 86 84 86 80 71 71 64 57 42 53 67 57 51 60 60 70 69 78 78 79 83 98 104 102 103 100 104 103 103 100 100 105 102 100 96 93 87 83 77 67 53 53 51 52 53 55 59 57 61 64 67 72 73 67 61
195 148 152 125 177 67 69 92 93 101 103 126 130 132 125 119 116 113 108 112 106 101 101 96 94 95 99 104 105 106 91 89 84 76 75 75 72 88 84 72 72 91 112 82 62 72 59 60 70 72 81 93 100 105 103 102 101 97 98 100 98 96 96 93 90 85 80 78 70 62 55 46 48 46 48 49 51 60 64 72 73 73 69 65 62
nan nan 177 146 124 55 2 77 103 109 114 134 135 134 128 123 117 111 109 111 104 109 107 110 113 112 108 108 111 114 112 100 89 83 78 80 78 74 91 92 90 88 83 107 88 84 84 90 93 95 85 82 95 97 98 102 103 105 102 102 102 99 93 89 86 93 90 79 70 62 56 51 44 45 47 47 49 53 63 65 71 69 66 65 64
nan nan nan 144 223 124 220 135 164 119 117 133 132 139 136 127 122 114 115 103 106 107 110 116 114 112 113 116 115 111 106 101 99 91 88 89 89 91 84 89 96 91 87 100 128 123 114 107 88 87 96 94 88 96 98 100 101 103 101 102 105 104 104 100 93 79 75 71 69 60 56 51 47 41 42 47 49 50 54 62 61 61 62 63 67
nan nan nan 165 204 188 173 158 205 119 131 141 145 146 146 139 127 122 117 105 110 110 110 111 110 107 114 114 117 119 114 105 100 100 96 89 94 98 90 92 96 98 94 93 95 82 86 103 118 117 106 104 104 102 108 106 104 104 107 108 104 100 95 96 93 89 79 79 81 70 59 55 51 48 42 38 43 45 49 52 54 55 59 63 70
nan nan nan 219 217 216 177 190 192 181 146 150 147 156 154 148 139 128 124 116 109 101 103 102 103 111 111 123 122 124 114 110 106 106 100 93 94 97 98 100 98 85 99 105 94 103 93 92 85 94 98 114 118 112 114 120 122 121 115 111 106 108 107 104 101 92 90 85 76 80 67 56 53 48 40 39 36 42 43 47 49 55 59 66 73
nan nan nan 231 214 232 182 236 228 239 160 166 157 164 163 158 155 146 139 118 112 109 103 100 109 114 121 132 133 123 120 113 107 110 99 97 96 97 111 105 100 110 103 109 99 95 109 113 110 101 121 110 105 115 114 109 109 114 116 111 113 104 104 96 89 89 85 73 74 65 65 65 63 56 51 35 37 37 40 46 55 58 66 69 75
nan nan nan 232 220 244 185 257 258 252 195 183 176 170 175 170 165 150 150 124 120 117 113 109 100 104 123 137 127 123 126 121 111 111 111 113 108 106 95 103 106 107 112 97 105 104 96 101 108 112 88 103 103 113 111 109 105 102 95 112 118 114 105 101 94 104 99 86 72 53 59 68 60 43 47 45 38 40 43 48 53 60 65 71 72
nan nan nan 238 223 231 200 244 238 240 220 194 179 180 179 179 165 169 156 134 129 121 114 112 112 127 136 146 140 138 125 129 122 119 120 114 129 125 125 114 114 104 100 107 104 102 101 97 98 108 118 114 118 100 99 104 107 106 111 112 105 106 111 109 103 83 90 84 89 92 86 66 52 55 64 59 50 43 50 50 52 58 63 66 68
nan nan nan 229 213 217 209 238 242 228 232 205 191 187 194 177 175 177 169 154 144 141 122 121 120 115 131 157 143 139 144 136 138 132 124 120 101 119 113 113 111 111 107 96 99 111 110 108 102 90 111 123 117 127 129 116 107 114 107 112 119 120 113 101 86 81 77 84 112 84 71 78 63 58 50 53 45 62 55 60 65 69 69 60 63
nan nan 235 224 209 221 213 224 237 234 220 217 192 189 193 182 185 185 178 162 160 154 141 117 95 106 142 108 141 152 150 150 140 141 132 132 125 114 122 101 124 119 114 108 108 96 105 96 99 99 95 97 99 104 99 102 125 131 129 111 104 110 114 105 86 70 75 71 87 94 76 74 78 60 53 72 86 51 72 87 87 81 66 57 55
nan nan 231 226 213 217 223 226 230 240 214 213 199 194 196 191 192 188 184 182 170 169 143 139 90 321 342 150 142 164 163 163 154 152 146 154 153 145 127 125 117 132 126 125 135 136 114 110 98 100 88 96 106 97 141 140 133 105 96 100 121 95 98 104 98 76 68 71 86 99 115 103 93 91 97 96 78 67 68 77 85 88 81 64 58
nan 233 224 227 212 223 226 224 222 237 226 213 212 195 199 188 204 194 200 194 186 168 167 147 140 251 289 269 123 203 190 171 160 155 185 142 163 158 133 142 149 156 154 152 138 125 113 109 111 87 91 104 116 145 157 116 88 115 78 84 89 116 130 84 76 69 60 59 94 114 111 104 81 74 85 84 78 72 71 82 85 92 93 85 71
nan 245 230 232 225 219 219 227 224 232 234 221 213 203 200 195 197 208 204 204 198 187 189 164 210 252 311 311 230 245 215 185 176 166 167 155 162 179 161 161 162 177 153 152 147 130 118 119 101 110 106 92 126 158 131 127 147 164 147 100 161 122 125 104 94 86 77 85 83 114 97 110 116 111 90 75 85 83 87 93 100 87 92 87 81
nan 244 236 244 228 215 223 222 228 229 229 231 205 212 214 209 193 203 209 210 203 207 220 193 238 156 286 291 265 309 13 335 351 116 159 187 188 164 180 195 188 182 173 170 154 148 128 100 112 128 116 126 93 138 192 153 158 158 103 125 88 169 164 140 100 88 123 112 94 55 88 95 115 108 87 71 76 93 87 81 75 87 79 80 96
246 246 234 238 217 235 231 224 228 231 227 239 218 212 217 208 205 199 208 216 212 211 211 203 220 240 255 273 293 326 22 357 348 79 211 196 187 173 197 197 207 192 200 196 161 188 134 183 160 131 126 136 111 152 163 183 178 157 157 124 200 146 148 103 147 140 116 106 171 nan 133 116 130 105 108 154 115 91 68 67 89 81 82 87 91
252 247 243 245 233 243 239 231 228 227 225 244 230 215 215 214 210 213 215 213 214 207 210 229 227 224 200 247 263 331 357 4 339 35 200 261 188 193 193 195 202 202 183 196 213 222 193 271 274 112 176 189 155 114 81 155 201 171 158 161 153 170 147 160 137 133 122 145 nan nan 110 154 147 104 117 81 88 88 118 76 81 79 80 88 101
265 254 256 255 251 254 247 240 231 226 226 236 238 223 223 214 222 222 216 218 219 213 211 217 224 222 219 222 242 249 329 27 330 13 280 269 204 204 198 166 198 201 197 209 215 218 252 235 262 158 170 202 152 159 126 121 178 117 120 141 124 143 148 128 150 125 134 146 137 147 167 121 98 83 71 78 94 123 138 132 81 67 87 103 96
283 271 257 260 263 258 258 245 231 229 226 233 234 231 226 222 227 218 219 209 219 219 218 224 229 223 229 229 223 232 253 89 318 322 327 329 147 209 190 165 170 199 197 197 183 220 205 234 232 221 210 148 110 164 159 122 131 134 164 138 133 159 149 140 136 134 143 150 144 139 150 161 159 168 148 159 203 188 142 99 93 97 104 99 105
299 283 262 260 259 260 262 250 236 231 230 243 233 236 230 231 230 221 218 213 218 223 222 217 230 226 233 222 214 233 227 166 257 326 13 351 58 123 158 158 140 180 129 210 152 259 203 229 235 227 229 311 73 58 86 108 126 143 184 139 149 129 102 135 151 121 127 132 155 161 173 168 184 160 167 166 143 55 63 132 138 134 116 101 102
298 290 281 264 266 262 267 264 243 229 230 242 235 242 241 237 234 228 228 226 227 224 226 230 228 228 231 222 223 216 220 225 288 318 350 6 2 33 44 62 81 71 99 184 216 242 200 200 195 215 256 328 275 77 82 125 154 127 172 157 149 147 146 136 120 120 162 143 150 139 160 159 177 168 143 169 160 163 154 112 92 96 133 117 111
294 305 295 275 272 267 271 271 253 230 230 236 238 246 246 243 239 240 241 242 237 235 235 240 232 236 229 229 227 214 205 215 315 336 347 8 346 355 31 10 57 255 104 202 101 71 3 20 41 223 199 129 351 81 102 128 127 135 151 172 139 141 143 145 147 154 141 127 141 138 157 169 187 209 168 177 140 174 125 120 118 158 124 147 134